Date String (YYYY-MM-DD hh:mm:ss) UTC,Instrument flags,Ambient pressure (hPa),Sample flow (lpm),Bypass flow (lpm),Sample temperature (°C),Ambient temperature (°C),ASC tube jacket temperature (°C),LED temperature (°C),Box temperature (°C),Sample RH (%),Span deviation,Mass concentration (μg/m³),Mass concentration (μg/m³),Mass concentration (μg/m³)
DateTimeUTC,F1_M11,P_M11,Q1_M11,Q2_M11,T1_M11,T2_M11,T3_M11,T4_M11,T5_M11,U1_M11,ZSPAN_M11,X2_M11,X0_M11,X1_M11
2022-11-16 20:00:00,,0833.6,4.99,0.00,22.3,20.9,00.0,31.3,24.2,08.4,0002.2,0005.48,0011.33,0004.26
2022-11-16 20:01:00,,0833.6,5.00,0.00,22.3,21.0,00.0,31.3,24.2,08.4,0004.1,0005.50,0011.36,0004.28
2022-11-16 20:02:00,,0833.6,5.01,0.00,22.3,21.0,00.0,31.3,24.2,08.5,0004.0,0005.50,0011.15,0004.28
2022-11-16 20:03:00,,0833.6,4.99,0.00,22.3,20.9,00.0,31.3,24.1,08.5,0004.0,0005.47,0010.87,0004.29
2022-11-16 20:04:00,,0833.6,5.00,0.00,22.3,20.8,00.0,31.3,24.1,08.4,0001.6,0005.49,0011.59,0004.30
2022-11-16 20:05:00,,0833.6,5.00,0.00,22.3,20.8,00.0,31.3,24.1,08.6,0001.5,0005.38,0011.87,0004.26
2022-11-16 20:06:00,,0833.6,5.00,0.00,22.3,20.8,00.0,31.3,24.1,08.7,0000.0,0005.22,0012.00,0004.17
2022-11-16 20:07:00,,0833.6,5.00,0.00,22.3,20.8,00.0,31.3,24.0,08.6,0000.0,0004.97,0011.24,0004.07
2022-11-16 20:08:00,,0833.6,5.02,0.00,22.2,20.8,00.0,31.3,24.0,08.7,0000.0,0004.69,0010.56,0003.91
2022-11-16 20:09:00,,0833.6,4.99,0.00,22.2,20.8,00.0,31.2,24.0,08.9,0000.0,0004.58,0010.31,0003.88
2022-11-16 20:10:00,,0833.6,5.00,0.00,22.2,20.8,00.0,31.2,24.0,08.8,0000.0,0004.31,0009.64,0003.77
2022-11-16 20:11:00,,0833.6,5.02,0.00,22.2,20.7,00.0,31.2,23.9,08.7,0000.0,0003.84,0008.73,0003.53
2022-11-16 20:12:00,,0833.6,4.98,0.00,22.2,20.7,00.0,31.2,23.9,08.8,0000.0,0003.84,0008.75,0003.52
2022-11-16 20:13:00,,0833.6,5.00,0.00,22.1,20.6,00.0,31.2,23.9,08.7,0000.0,0003.85,0008.87,0003.53
2022-11-16 20:14:00,,0833.6,5.01,0.00,22.1,20.7,00.0,31.2,23.9,08.8,0000.0,0003.84,0008.91,0003.54
2022-11-16 20:15:00,,0833.6,5.01,0.00,22.1,20.7,00.0,31.2,23.9,09.0,0000.0,0003.93,0008.36,0003.58
2022-11-16 20:16:00,,0833.6,5.00,0.00,22.1,20.8,00.0,31.1,23.9,09.2,0000.0,0004.16,0008.47,0003.71
2022-11-16 20:17:00,,0833.6,4.98,0.00,22.1,20.8,00.0,31.1,23.9,09.0,0000.0,0004.22,0009.03,0003.73
2022-11-16 20:18:00,,0833.6,5.00,0.00,22.1,20.7,00.0,31.1,24.0,08.8,0000.0,0004.22,0009.49,0003.73
2022-11-16 20:19:00,,0833.6,5.00,0.00,22.1,20.7,00.0,31.1,23.9,08.7,0000.0,0004.19,0009.56,0003.73
2022-11-16 20:20:00,,0833.6,5.02,0.00,22.1,20.7,00.0,31.1,23.9,08.7,0001.0,0004.24,0010.32,0003.76
2022-11-16 20:21:00,,0833.6,4.99,0.00,22.1,20.7,00.0,31.1,23.9,08.8,0002.8,0004.27,0010.53,0003.78
2022-11-16 20:22:00,,0833.5,4.99,0.00,22.1,20.8,00.0,31.1,23.9,08.7,0003.4,0004.28,0010.71,0003.80
2022-11-16 20:23:00,,0833.5,5.02,0.00,22.1,20.9,00.0,31.1,24.0,08.9,0003.9,0004.31,0010.71,0003.82
2022-11-16 20:24:00,,0833.6,4.98,0.00,22.1,20.9,00.0,31.1,24.0,08.9,0003.8,0004.33,0011.13,0003.84
2022-11-16 20:25:00,,0833.5,5.02,0.00,22.1,20.9,00.0,31.1,23.9,08.7,0004.3,0004.38,0011.25,0003.86
2022-11-16 20:26:00,,0833.5,4.99,0.00,22.1,20.8,00.0,31.1,23.9,08.9,0004.2,0004.30,0011.75,0003.83
2022-11-16 20:27:00,,0833.5,5.00,0.00,22.1,20.8,00.0,31.1,23.9,08.9,0000.0,0004.08,0011.37,0003.72
2022-11-16 20:28:00,,0833.5,5.00,0.00,22.1,20.8,00.0,31.1,23.9,09.0,0000.0,0004.06,0010.42,0003.72
2022-11-16 20:29:00,,0833.5,5.00,0.00,22.1,20.7,00.0,31.1,23.9,08.7,0000.0,0004.09,0009.55,0003.74
2022-11-16 20:30:00,,0833.5,4.98,0.00,22.1,20.7,00.0,31.1,23.9,08.6,0000.0,0004.12,0009.82,0003.76
2022-11-16 20:31:00,,0833.4,5.01,0.00,22.1,20.7,00.0,31.1,23.9,08.7,0000.0,0004.12,0009.82,0003.75
2022-11-16 20:32:00,,0833.4,4.99,0.00,22.1,20.6,00.0,31.1,23.9,09.0,0000.0,0004.11,0009.66,0003.74
2022-11-16 20:33:00,,0833.4,5.00,0.00,22.1,20.6,00.0,31.1,23.8,08.9,0000.0,0004.12,0009.56,0003.74
2022-11-16 20:34:00,,0833.4,5.01,0.00,22.0,20.6,00.0,31.0,23.8,08.8,0000.0,0004.12,0009.57,0003.74
2022-11-16 20:35:00,,0833.4,5.00,0.00,22.0,20.6,00.0,31.0,23.8,08.8,0000.0,0004.38,0009.71,0003.82
2022-11-16 20:36:00,,0833.4,5.00,0.00,22.0,20.6,00.0,31.0,23.8,09.0,0000.0,0005.52,0012.31,0004.24
2022-11-16 20:37:00,,0833.4,5.00,0.00,22.0,20.6,00.0,31.0,23.8,08.7,0000.0,0005.60,0011.89,0004.28
2022-11-16 20:38:00,,0833.4,4.98,0.00,22.0,20.6,00.0,31.0,23.8,08.9,0000.0,0005.62,0011.82,0004.29
2022-11-16 20:39:00,,0833.4,5.01,0.00,22.0,20.6,00.0,31.0,23.8,08.8,0000.0,0005.62,0011.77,0004.28
2022-11-16 20:40:00,,0833.5,5.01,0.00,22.0,20.6,00.0,31.0,23.8,08.9,0000.0,0005.63,0011.83,0004.28
2022-11-16 20:41:00,,0833.4,4.99,0.00,22.0,20.6,00.0,31.0,23.8,09.2,0000.0,0005.66,0011.49,0004.28
2022-11-16 20:42:00,,0833.4,4.99,0.00,22.0,20.5,00.0,31.0,23.8,09.0,0000.0,0005.64,0010.85,0004.28
2022-11-16 20:43:00,,0833.5,5.02,0.00,22.0,20.6,00.0,31.0,23.8,08.9,0000.0,0005.63,0010.87,0004.28
2022-11-16 20:44:00,,0833.4,5.00,0.00,22.0,20.6,00.0,31.0,23.8,08.9,0000.0,0005.63,0011.32,0004.28
2022-11-16 20:45:00,,0833.4,4.99,0.00,22.0,20.5,00.0,31.0,23.8,09.0,0001.6,0005.62,0011.72,0004.27
2022-11-16 20:46:00,,0833.4,5.00,0.00,22.0,20.4,00.0,31.0,23.7,09.1,0002.1,0005.39,0011.32,0004.24
2022-11-16 20:47:00,,0833.4,5.00,0.00,22.0,20.4,00.0,31.0,23.7,09.1,0000.0,0004.32,0008.76,0003.85
2022-11-16 20:48:00,,0833.4,5.01,0.00,21.9,20.4,00.0,30.9,23.7,08.8,0000.0,0004.26,0008.52,0003.81
2022-11-16 20:49:00,,0833.4,5.00,0.00,21.9,20.3,00.0,30.9,23.6,08.8,0000.0,0004.22,0009.53,0003.80
2022-11-16 20:50:00,,0833.3,5.01,0.00,21.9,20.2,00.0,30.9,23.6,08.9,0000.0,0004.19,0009.87,0003.78
2022-11-16 20:51:00,,0833.3,4.99,0.00,21.9,20.2,00.0,30.9,23.6,09.1,0000.0,0004.12,0009.72,0003.76
2022-11-16 20:52:00,,0833.2,4.99,0.00,21.8,20.2,00.0,30.9,23.6,08.9,0000.0,0004.07,0009.64,0003.73
2022-11-16 20:53:00,,0833.3,5.00,0.00,21.8,20.1,00.0,30.9,23.6,09.0,0000.0,0004.07,0010.43,0003.71
2022-11-16 20:54:00,,0833.3,5.00,0.00,21.8,20.1,00.0,30.9,23.5,08.8,0000.0,0004.08,0011.20,0003.70
2022-11-16 20:55:00,,0833.3,5.00,0.00,21.8,20.1,00.0,30.8,23.5,08.8,0000.0,0004.05,0010.83,0003.68
2022-11-16 20:56:00,,0833.3,5.01,0.00,21.8,20.1,00.0,30.8,23.5,08.8,0000.0,0004.04,0010.48,0003.66
2022-11-16 20:57:00,,0833.3,5.01,0.00,21.8,20.1,00.0,30.8,23.5,08.8,0000.0,0003.96,0010.19,0003.57
2022-11-16 20:58:00,,0833.3,4.99,0.00,21.8,20.2,00.0,30.8,23.6,08.9,0000.0,0003.92,0010.18,0003.51
2022-11-16 20:59:00,,0833.3,4.99,0.00,21.8,20.2,00.0,30.8,23.6,09.0,0000.0,0003.89,0010.35,0003.48
